sat.trackr.live / text

‹ back to catalog

STARLINK-2291

NORAD 47862 · 2021-021C

PAYLOAD ACTIVE UNKNOWN

§ Identity

Operator
Country
US
Launch date
2021-03-14
Launch site
AFETR
Launch vehicle
Mass (kg)
RCS (m²)

Purposes: comms

External: N2YO · Heavens-Above · Gunter

§ Orbital elements

Epoch: 2026-09-10T04:27:38.287584Z

Period
88.94 min
Inclination
53.1401°
Eccentricity
0.0011251
Mean motion
16.19067673 rev/d
Perigee alt
214.7 km
Apogee alt
229.5 km
Semi-major
6,600.2 km
B*
9.3419e-4
RAAN
76.3796°
Arg perigee
276.9811°
Mean anomaly
82.9948°
Rev number
30,525

§ Raw data

STARLINK-22911 47862U 21021C   26253.18585981  .01746398  11779-4  93419-3 0  99922 47862  53.1401  76.3796 0011251 276.9811  82.9948 16.19067673305256

JSON: /api/v1/satellites/47862 · /tle

For live sub-satellite position, see the globe view (requires WebGL).

§ Visibility from observer

Set your observer location to see the next 7 days of passes ≥ 10°. The values pass through the URL so the page stays shareable.

No JS? Fill the form by hand. The geolocation button needs JavaScript.